N6403W PAKN-PAPM

Flight info

Callsign N6403W
Flight time 0h 51m
Altitude 18000
Route TOG
Aircraft PA46/L-VGD/C

Departure

Time 2026-04-28 21:58
Airport King Salmon Airport (PAKN)

Arrival

Time 2026-04-28 22:49
Airport Platinum Airport (PAPM)
Time Latitude Longitude Altitude Speed Heading
2026-04-28 21:58 58.69682 -156.94268 8536 ft 160 kts 274°
2026-04-28 21:58 58.69933 -156.96334 8974 ft 161 kts 274°
2026-04-28 21:58 58.70188 -156.98441 9420 ft 162 kts 274°
2026-04-28 21:59 58.70442 -157.00565 9848 ft 163 kts 273°
2026-04-28 21:59 58.70685 -157.02707 10250 ft 165 kts 274°
2026-04-28 21:59 58.70941 -157.04862 10651 ft 166 kts 274°
2026-04-28 22:00 58.71464 -157.09213 11456 ft 168 kts 274°
2026-04-28 22:00 58.71729 -157.11415 11868 ft 169 kts 274°
2026-04-28 22:00 58.71994 -157.13626 12283 ft 170 kts 274°
2026-04-28 22:00 58.72262 -157.15857 12698 ft 172 kts 274°
2026-04-28 22:01 58.72530 -157.18105 13112 ft 173 kts 274°
2026-04-28 22:01 58.72801 -157.20373 13529 ft 174 kts 274°
2026-04-28 22:01 58.73073 -157.22654 13911 ft 175 kts 274°
2026-04-28 22:01 58.73346 -157.24944 14291 ft 176 kts 274°
2026-04-28 22:02 58.73619 -157.27247 14667 ft 177 kts 274°
2026-04-28 22:02 58.73893 -157.29556 15047 ft 177 kts 274°
2026-04-28 22:02 58.74164 -157.31845 15421 ft 178 kts 273°
2026-04-28 22:02 58.74440 -157.34173 15809 ft 179 kts 273°
2026-04-28 22:03 58.74715 -157.36510 16191 ft 180 kts 273°
2026-04-28 22:03 58.74993 -157.38864 16564 ft 180 kts 273°
2026-04-28 22:03 58.75271 -157.41226 16945 ft 181 kts 273°
2026-04-28 22:03 58.75549 -157.43602 17313 ft 182 kts 273°
2026-04-28 22:04 58.75738 -157.45215 17574 ft 183 kts 272°
2026-04-28 22:04 58.75997 -157.47423 17888 ft 184 kts 272°
2026-04-28 22:04 58.76283 -157.49900 18014 ft 198 kts 273°
2026-04-28 22:04 58.76595 -157.52584 18021 ft 213 kts 274°
2026-04-28 22:05 58.76933 -157.55436 18011 ft 223 kts 275°
2026-04-28 22:05 58.77169 -157.57420 18006 ft 227 kts 275°
2026-04-28 22:05 58.77515 -157.60365 18008 ft 230 kts 275°
2026-04-28 22:05 58.77866 -157.63394 18001 ft 232 kts 275°
2026-04-28 22:06 58.78216 -157.66445 17996 ft 234 kts 275°
2026-04-28 22:06 58.78571 -157.69530 17992 ft 236 kts 275°
2026-04-28 22:06 58.78927 -157.72628 17992 ft 237 kts 275°
2026-04-28 22:06 58.79284 -157.75738 17995 ft 238 kts 275°
2026-04-28 22:07 58.79641 -157.78858 17996 ft 238 kts 275°
2026-04-28 22:07 58.79999 -157.81991 17994 ft 239 kts 275°
2026-04-28 22:07 58.80356 -157.85129 17990 ft 240 kts 275°
2026-04-28 22:07 58.80713 -157.88268 17992 ft 240 kts 275°
2026-04-28 22:08 58.81069 -157.91408 17988 ft 240 kts 275°
2026-04-28 22:08 58.81425 -157.94553 17986 ft 240 kts 275°
2026-04-28 22:08 58.81780 -157.97701 17986 ft 240 kts 275°
2026-04-28 22:08 58.82134 -158.00848 17988 ft 240 kts 275°
2026-04-28 22:09 58.82488 -158.03995 17990 ft 240 kts 275°
2026-04-28 22:09 58.82836 -158.07108 17991 ft 240 kts 275°
2026-04-28 22:09 58.83188 -158.10256 17987 ft 240 kts 275°
2026-04-28 22:09 58.83540 -158.13409 17989 ft 240 kts 275°
2026-04-28 22:10 58.83890 -158.16561 17990 ft 240 kts 275°
2026-04-28 22:10 58.84240 -158.19719 17990 ft 240 kts 275°
2026-04-28 22:10 58.84590 -158.22874 17991 ft 240 kts 275°
2026-04-28 22:10 58.84938 -158.26030 17996 ft 241 kts 275°
2026-04-28 22:11 58.85286 -158.29191 17993 ft 241 kts 275°
2026-04-28 22:11 58.85634 -158.32356 17998 ft 241 kts 275°
2026-04-28 22:11 58.85982 -158.35528 17998 ft 241 kts 275°
2026-04-28 22:11 58.86329 -158.38705 18000 ft 242 kts 275°
2026-04-28 22:12 58.86676 -158.41882 18001 ft 242 kts 275°
2026-04-28 22:12 58.87022 -158.45061 18000 ft 242 kts 275°
2026-04-28 22:12 58.87368 -158.48247 18001 ft 242 kts 275°
2026-04-28 22:12 58.87712 -158.51426 17996 ft 242 kts 275°
2026-04-28 22:13 58.88056 -158.54606 17999 ft 242 kts 275°
2026-04-28 22:13 58.88395 -158.57751 17998 ft 242 kts 275°
2026-04-28 22:13 58.88737 -158.60935 17999 ft 241 kts 275°
2026-04-28 22:13 58.89078 -158.64116 18000 ft 241 kts 275°
2026-04-28 22:14 58.89417 -158.67293 18001 ft 241 kts 275°
2026-04-28 22:14 58.89757 -158.70475 17993 ft 242 kts 275°
2026-04-28 22:14 58.90096 -158.73658 17994 ft 242 kts 275°
2026-04-28 22:14 58.90434 -158.76844 17997 ft 242 kts 275°
2026-04-28 22:15 58.90771 -158.80029 17997 ft 242 kts 275°
2026-04-28 22:15 58.91109 -158.83221 17996 ft 242 kts 275°
2026-04-28 22:15 58.91444 -158.86400 18000 ft 242 kts 275°
2026-04-28 22:15 58.91778 -158.89590 17997 ft 241 kts 275°
2026-04-28 22:16 58.92112 -158.92774 17997 ft 241 kts 275°
2026-04-28 22:16 58.92446 -158.95961 17997 ft 241 kts 275°
2026-04-28 22:16 58.92774 -158.99143 17996 ft 241 kts 274°
2026-04-28 22:16 58.93093 -159.02329 17995 ft 241 kts 274°
2026-04-28 22:17 58.93422 -159.05511 17999 ft 241 kts 274°
2026-04-28 22:17 58.93755 -159.08699 17997 ft 242 kts 274°
2026-04-28 22:17 58.94085 -159.11886 18002 ft 241 kts 274°
2026-04-28 22:17 58.94413 -159.15079 17997 ft 242 kts 274°
2026-04-28 22:18 58.94740 -159.18267 17994 ft 241 kts 274°
2026-04-28 22:18 58.95063 -159.21417 17990 ft 241 kts 274°
2026-04-28 22:18 58.95389 -159.24603 17994 ft 241 kts 274°
2026-04-28 22:18 58.95713 -159.27776 17988 ft 240 kts 274°
2026-04-28 22:19 58.96035 -159.30956 17985 ft 240 kts 274°
2026-04-28 22:19 58.96356 -159.34132 17983 ft 240 kts 274°
2026-04-28 22:19 58.96678 -159.37317 17976 ft 241 kts 274°
2026-04-28 22:19 58.97001 -159.40506 17976 ft 241 kts 275°
2026-04-28 22:20 58.97322 -159.43684 17970 ft 240 kts 274°
2026-04-28 22:20 58.97640 -159.46870 17970 ft 241 kts 274°
2026-04-28 22:20 58.97958 -159.50061 17965 ft 241 kts 274°
2026-04-28 22:20 58.98277 -159.53247 17960 ft 241 kts 274°
2026-04-28 22:21 58.98595 -159.56443 17959 ft 241 kts 274°
2026-04-28 22:21 58.98912 -159.59639 17946 ft 242 kts 274°
2026-04-28 22:21 58.99229 -159.62842 17951 ft 242 kts 275°
2026-04-28 22:21 58.99546 -159.66038 17954 ft 241 kts 274°
2026-04-28 22:22 58.99860 -159.69237 17954 ft 242 kts 274°
2026-04-28 22:22 59.00175 -159.72442 17951 ft 242 kts 274°
2026-04-28 22:22 59.00488 -159.75638 17947 ft 240 kts 274°
2026-04-28 22:22 59.00799 -159.78824 17946 ft 240 kts 274°
2026-04-28 22:23 59.01109 -159.82003 17947 ft 240 kts 274°
2026-04-28 22:23 59.01418 -159.85189 17939 ft 241 kts 274°
2026-04-28 22:23 59.01724 -159.88348 17941 ft 240 kts 274°
2026-04-28 22:23 59.02032 -159.91537 17937 ft 240 kts 274°
2026-04-28 22:24 59.02339 -159.94712 17938 ft 239 kts 274°
2026-04-28 22:24 59.02644 -159.97884 17941 ft 239 kts 274°
2026-04-28 22:24 59.02948 -160.01065 17941 ft 239 kts 274°
2026-04-28 22:24 59.03252 -160.04240 17944 ft 239 kts 274°
2026-04-28 22:25 59.03555 -160.07418 17944 ft 240 kts 274°
2026-04-28 22:25 59.03857 -160.10602 17947 ft 240 kts 274°
2026-04-28 22:25 59.04159 -160.13787 17948 ft 240 kts 274°
2026-04-28 22:25 59.04461 -160.16980 17952 ft 240 kts 274°
2026-04-28 22:26 59.04762 -160.20174 17950 ft 240 kts 274°
2026-04-28 22:26 59.05062 -160.23366 17960 ft 240 kts 274°
2026-04-28 22:26 59.05361 -160.26559 17949 ft 240 kts 274°
2026-04-28 22:26 59.05660 -160.29747 17952 ft 240 kts 274°
2026-04-28 22:27 59.05957 -160.32934 17954 ft 240 kts 274°
2026-04-28 22:27 59.06252 -160.36120 17950 ft 240 kts 274°
2026-04-28 22:27 59.06676 -160.39271 17953 ft 243 kts 283°
2026-04-28 22:27 59.07241 -160.42366 17957 ft 243 kts 283°
2026-04-28 22:28 59.07778 -160.45438 17957 ft 243 kts 282°
2026-04-28 22:28 59.08322 -160.48564 17951 ft 244 kts 283°
2026-04-28 22:28 59.08870 -160.51691 17952 ft 244 kts 283°
2026-04-28 22:28 59.09417 -160.54808 17953 ft 243 kts 283°
2026-04-28 22:29 59.09962 -160.57924 17952 ft 244 kts 282°
2026-04-28 22:29 59.10511 -160.61083 17748 ft 250 kts 283°
2026-04-28 22:29 59.11068 -160.64256 17433 ft 246 kts 283°
2026-04-28 22:29 59.11617 -160.67386 17092 ft 243 kts 282°
2026-04-28 22:30 59.12155 -160.70500 16750 ft 241 kts 282°
2026-04-28 22:30 59.12686 -160.73569 16411 ft 238 kts 282°
2026-04-28 22:30 59.13205 -160.76568 16085 ft 236 kts 282°
2026-04-28 22:30 59.13726 -160.79590 15768 ft 235 kts 281°
2026-04-28 22:31 59.14246 -160.82611 15447 ft 235 kts 281°
2026-04-28 22:31 59.14766 -160.85626 15135 ft 234 kts 281°
2026-04-28 22:31 59.15283 -160.88639 14820 ft 235 kts 281°
2026-04-28 22:31 59.15801 -160.91656 14507 ft 235 kts 281°
2026-04-28 22:32 59.16318 -160.94671 14197 ft 234 kts 281°
2026-04-28 22:32 59.16834 -160.97692 13887 ft 235 kts 281°
2026-04-28 22:32 59.17352 -161.00713 13565 ft 234 kts 281°
2026-04-28 22:32 59.17863 -161.03714 13220 ft 233 kts 280°
2026-04-28 22:33 59.18371 -161.06707 12909 ft 232 kts 280°
2026-04-28 22:33 59.18877 -161.09684 12590 ft 231 kts 280°
2026-04-28 22:33 59.19381 -161.12649 12277 ft 229 kts 280°
2026-04-28 22:33 59.19879 -161.15591 11969 ft 228 kts 280°
2026-04-28 22:34 59.20376 -161.18540 11666 ft 228 kts 280°
2026-04-28 22:34 59.20867 -161.21448 11368 ft 229 kts 280°
2026-04-28 22:34 59.21364 -161.24401 11065 ft 229 kts 280°
2026-04-28 22:34 59.21862 -161.27355 10765 ft 229 kts 280°
2026-04-28 22:35 59.22360 -161.30321 10463 ft 230 kts 280°
2026-04-28 22:35 59.22858 -161.33289 10159 ft 230 kts 281°
2026-04-28 22:35 59.23356 -161.36269 9850 ft 231 kts 280°
2026-04-28 22:35 59.23855 -161.39255 9541 ft 231 kts 280°
2026-04-28 22:36 59.24352 -161.42224 9221 ft 229 kts 280°
2026-04-28 22:36 59.24843 -161.45169 8918 ft 228 kts 280°
2026-04-28 22:36 59.25334 -161.48128 8607 ft 228 kts 280°
2026-04-28 22:36 59.25820 -161.51055 8306 ft 225 kts 281°
2026-04-28 22:37 59.26302 -161.53965 8007 ft 225 kts 281°
2026-04-28 22:37 59.26783 -161.56867 7708 ft 224 kts 281°
2026-04-28 22:37 59.27262 -161.59763 7419 ft 223 kts 280°
2026-04-28 22:37 59.27738 -161.62648 7129 ft 222 kts 280°
2026-04-28 22:38 59.28211 -161.65525 6838 ft 222 kts 280°
2026-04-28 22:38 59.28684 -161.68410 6539 ft 223 kts 280°
2026-04-28 22:38 59.29158 -161.71286 6257 ft 222 kts 280°
2026-04-28 22:38 59.29627 -161.74160 5955 ft 221 kts 280°
2026-04-28 22:39 59.30094 -161.76982 5662 ft 215 kts 279°
2026-04-28 22:39 59.30524 -161.79707 5386 ft 208 kts 274°
2026-04-28 22:39 59.30615 -161.82420 5115 ft 194 kts 254°
2026-04-28 22:39 59.30334 -161.84910 4867 ft 182 kts 238°
2026-04-28 22:40 59.29770 -161.87021 4637 ft 171 kts 224°
2026-04-28 22:40 59.28998 -161.88695 4416 ft 161 kts 210°
2026-04-28 22:40 59.28098 -161.89897 4198 ft 154 kts 200°
2026-04-28 22:40 59.27136 -161.90781 3998 ft 152 kts 196°
2026-04-28 22:41 59.26176 -161.91629 3807 ft 151 kts 196°
2026-04-28 22:41 59.25219 -161.92486 3604 ft 152 kts 197°
2026-04-28 22:41 59.24263 -161.93373 3389 ft 152 kts 198°
2026-04-28 22:41 59.23321 -161.94254 3219 ft 148 kts 197°
2026-04-28 22:42 59.22382 -161.95090 2994 ft 147 kts 196°
2026-04-28 22:42 59.21448 -161.95913 2812 ft 147 kts 197°
2026-04-28 22:42 59.20522 -161.96736 2633 ft 146 kts 197°
2026-04-28 22:42 59.19576 -161.97377 2426 ft 142 kts 184°
2026-04-28 22:43 59.18611 -161.97504 2290 ft 135 kts 174°
2026-04-28 22:43 59.17730 -161.97233 2257 ft 128 kts 163°
2026-04-28 22:43 59.16891 -161.96580 2175 ft 132 kts 155°
2026-04-28 22:43 59.16063 -161.95773 2102 ft 134 kts 155°
2026-04-28 22:44 59.15217 -161.94955 2023 ft 137 kts 156°
2026-04-28 22:44 59.14344 -161.94155 1923 ft 137 kts 155°
2026-04-28 22:44 59.13491 -161.93373 1876 ft 133 kts 155°
2026-04-28 22:44 59.12649 -161.92604 1769 ft 133 kts 155°
2026-04-28 22:45 59.11822 -161.91855 1667 ft 129 kts 155°
2026-04-28 22:45 59.11014 -161.91136 1560 ft 127 kts 155°
2026-04-28 22:45 59.10247 -161.90450 1515 ft 113 kts 155°
2026-04-28 22:45 59.09585 -161.89840 1504 ft 99 kts 154°
2026-04-28 22:46 59.09013 -161.89315 1469 ft 85 kts 155°
2026-04-28 22:46 59.08466 -161.88816 1400 ft 92 kts 154°
2026-04-28 22:46 59.07870 -161.88258 1255 ft 98 kts 154°
2026-04-28 22:46 59.07254 -161.87694 1105 ft 98 kts 154°
2026-04-28 22:47 59.06638 -161.87142 979 ft 97 kts 153°
2026-04-28 22:47 59.06038 -161.86605 825 ft 91 kts 153°
2026-04-28 22:47 59.05487 -161.86110 691 ft 80 kts 152°
2026-04-28 22:47 59.05011 -161.85677 559 ft 73 kts 152°
2026-04-28 22:48 59.04547 -161.85256 458 ft 75 kts 150°
2026-04-28 22:48 59.04074 -161.84813 375 ft 77 kts 151°
2026-04-28 22:48 59.03586 -161.84362 284 ft 80 kts 151°
2026-04-28 22:48 59.03084 -161.83927 195 ft 77 kts 151°
2026-04-28 22:49 59.02589 -161.83472 86 ft 78 kts 151°
2026-04-28 22:49 59.02158 -161.83077 23 ft 56 kts 149°
2026-04-28 22:49 59.01865 -161.82799 21 ft 41 kts 152°
2026-04-28 22:49 59.01640 -161.82585 21 ft 29 kts 147°
2026-04-28 22:50 59.01647 -161.82379 21 ft 17 kts 89°
2026-04-28 22:50 59.01614 -161.82349 21 ft 3 kts 238°
2026-04-28 22:50 59.01611 -161.82364 21 ft 0 kts 248°